Time,TemperatureF,DewpointF,PressureIn,WindDirection,WindDirectionDegrees,WindSpeedMPH,WindSpeedGustMPH,Humidity,HourlyPrecipIn,Conditions,Clouds,dailyrainin,SoftwareType,DateUTC
2013-02-07 00:07:00,46.1,43.0,30.27,ENE,70,1.0,3.0,89,0.00,,,0.00,weatherlink.com 1.10,2013-02-07 05:07:00,
2013-02-07 00:22:00,46.3,43.0,30.29,ENE,65,0.0,2.0,89,0.00,,,0.00,weatherlink.com 1.10,2013-02-07 05:22:00,
2013-02-07 00:37:00,46.4,43.0,30.29,ENE,61,0.0,2.0,88,0.00,,,0.00,weatherlink.com 1.10,2013-02-07 05:37:00,
2013-02-07 00:52:00,46.5,43.0,30.29,ENE,68,0.0,4.0,88,0.00,,,0.00,weatherlink.com 1.10,2013-02-07 05:52:00,
2013-02-07 01:07:00,46.4,43.0,30.30,NE,54,0.0,5.0,89,0.00,,,0.00,weatherlink.com 1.10,2013-02-07 06:07:00,
2013-02-07 01:22:00,46.1,43.0,30.30,NNE,33,0.0,1.0,89,0.00,,,0.00,weatherlink.com 1.10,2013-02-07 06:22:00,
2013-02-07 01:37:00,46.0,43.0,30.29,WNW,283,0.0,2.0,89,0.00,,,0.00,weatherlink.com 1.10,2013-02-07 06:37:00,
2013-02-07 01:52:00,45.9,43.0,30.28,North,349,1.0,3.0,89,0.00,,,0.00,weatherlink.com 1.10,2013-02-07 06:52:00,
2013-02-07 02:07:00,46.1,43.0,30.27,NW,307,0.0,2.0,89,0.00,,,0.00,weatherlink.com 1.10,2013-02-07 07:07:00,
2013-02-07 02:22:00,46.3,43.0,30.26,NNW,342,0.0,2.0,89,0.00,,,0.00,weatherlink.com 1.10,2013-02-07 07:22:00,
2013-02-07 02:37:00,46.4,43.0,30.27,NW,326,0.0,2.0,89,0.00,,,0.00,weatherlink.com 1.10,2013-02-07 07:37:00,
2013-02-07 02:52:00,46.5,44.0,30.27,North,355,0.0,2.0,89,0.00,,,0.00,weatherlink.com 1.10,2013-02-07 07:52:00,
2013-02-07 03:22:00,46.5,43.0,30.27,NW,319,1.0,4.0,88,0.00,,,0.00,weatherlink.com 1.10,2013-02-07 08:22:00,
2013-02-07 03:39:00,46.2,43.0,30.27,WSW,253,0.0,2.0,88,0.00,,,0.00,weatherlink.com 1.10,2013-02-07 08:39:00,
2013-02-07 03:52:00,45.9,43.0,30.27,NNE,19,0.0,3.0,89,0.00,,,0.00,weatherlink.com 1.10,2013-02-07 08:52:00,
2013-02-07 04:07:00,45.7,43.0,30.27,NNW,342,0.0,3.0,89,0.00,,,0.00,weatherlink.com 1.10,2013-02-07 09:07:00,
2013-02-07 04:22:00,45.7,43.0,30.27,SW,225,1.0,5.0,90,0.00,,,0.00,weatherlink.com 1.10,2013-02-07 09:22:00,
2013-02-07 04:37:00,46.1,43.0,30.28,NNW,333,0.0,3.0,89,0.00,,,0.00,weatherlink.com 1.10,2013-02-07 09:37:00,
2013-02-07 04:52:00,46.3,43.0,30.28,North,359,1.0,4.0,88,0.00,,,0.00,weatherlink.com 1.10,2013-02-07 09:52:00,
2013-02-07 05:07:00,46.5,43.0,30.28,NW,314,1.0,2.0,87,0.00,,,0.00,weatherlink.com 1.10,2013-02-07 10:07:00,
2013-02-07 05:23:00,46.7,43.0,30.28,WNW,288,0.0,4.0,87,0.00,,,0.00,weatherlink.com 1.10,2013-02-07 10:23:00,
2013-02-07 05:37:00,47.1,44.0,30.28,WSW,248,0.0,4.0,87,0.00,,,0.00,weatherlink.com 1.10,2013-02-07 10:37:00,
2013-02-07 05:53:00,47.3,43.0,30.28,North,1,0.0,4.0,86,0.00,,,0.00,weatherlink.com 1.10,2013-02-07 10:53:00,
2013-02-07 06:07:00,47.5,44.0,30.28,NNW,327,0.0,3.0,86,0.00,,,0.00,weatherlink.com 1.10,2013-02-07 11:07:00,
2013-02-07 06:23:00,47.2,43.0,30.29,NNW,345,1.0,4.0,86,0.00,,,0.00,weatherlink.com 1.10,2013-02-07 11:23:00,
2013-02-07 06:37:00,47.1,43.0,30.28,NNW,336,1.0,3.0,86,0.00,,,0.00,weatherlink.com 1.10,2013-02-07 11:37:00,
2013-02-07 06:53:00,47.3,43.0,30.29,North,3,1.0,4.0,86,0.00,,,0.00,weatherlink.com 1.10,2013-02-07 11:53:00,
2013-02-07 07:07:00,47.1,43.0,30.29,WNW,302,0.0,2.0,86,0.00,,,0.00,weatherlink.com 1.10,2013-02-07 12:07:00,
2013-02-07 07:23:00,47.3,43.0,30.29,North,352,0.0,2.0,86,0.00,,,0.00,weatherlink.com 1.10,2013-02-07 12:23:00,
2013-02-07 07:37:00,47.9,44.0,30.29,NNW,338,1.0,3.0,86,0.00,,,0.00,weatherlink.com 1.10,2013-02-07 12:37:00,
2013-02-07 07:52:00,48.6,44.0,30.29,ENE,60,0.0,3.0,85,0.00,,,0.00,weatherlink.com 1.10,2013-02-07 12:52:00,
2013-02-07 08:08:00,50.0,45.0,30.30,NNW,330,1.0,3.0,84,0.00,,,0.00,weatherlink.com 1.10,2013-02-07 13:08:00,
2013-02-07 08:23:00,50.6,45.0,30.30,NNW,340,0.0,6.0,82,0.00,,,0.00,weatherlink.com 1.10,2013-02-07 13:23:00,
2013-02-07 08:38:00,51.4,46.0,30.30,WNW,297,1.0,6.0,82,0.00,,,0.00,weatherlink.com 1.10,2013-02-07 13:38:00,
2013-02-07 08:53:00,52.4,46.0,30.29,NE,42,3.0,4.0,80,0.00,,,0.00,weatherlink.com 1.10,2013-02-07 13:53:00,
2013-02-07 09:08:00,53.1,47.0,30.30,West,262,2.0,6.0,79,0.00,,,0.00,weatherlink.com 1.10,2013-02-07 14:08:00,
2013-02-07 09:23:00,53.6,47.0,30.30,East,86,3.0,9.0,78,0.00,,,0.00,weatherlink.com 1.10,2013-02-07 14:23:00,
2013-02-07 09:38:00,54.8,47.0,30.30,NW,319,0.0,9.0,76,0.00,,,0.00,weatherlink.com 1.10,2013-02-07 14:38:00,
2013-02-07 09:53:00,55.2,47.0,30.30,East,91,2.0,7.0,75,0.00,,,0.00,weatherlink.com 1.10,2013-02-07 14:53:00,
2013-02-07 10:08:00,55.2,48.0,30.31,NE,51,1.0,7.0,76,0.00,,,0.00,weatherlink.com 1.10,2013-02-07 15:08:00,
2013-02-07 10:23:00,54.9,48.0,30.30,NE,36,4.0,7.0,77,0.00,,,0.00,weatherlink.com 1.10,2013-02-07 15:23:00,
2013-02-07 10:38:00,56.3,49.0,30.31,NW,319,3.0,6.0,76,0.00,,,0.00,weatherlink.com 1.10,2013-02-07 15:38:00,
2013-02-07 10:53:00,56.9,49.0,30.30,North,9,2.0,9.0,75,0.00,,,0.00,weatherlink.com 1.10,2013-02-07 15:53:00,
2013-02-07 11:08:00,57.2,49.0,30.29,ESE,121,5.0,10.0,74,0.00,,,0.00,weatherlink.com 1.10,2013-02-07 16:08:00,
2013-02-07 11:23:00,57.1,49.0,30.28,NNW,330,2.0,14.0,75,0.00,,,0.00,weatherlink.com 1.10,2013-02-07 16:23:00,
2013-02-07 11:38:00,56.0,49.0,30.28,NE,54,3.0,11.0,77,0.00,,,0.00,weatherlink.com 1.10,2013-02-07 16:38:00,
2013-02-07 11:53:00,56.2,49.0,30.27,NW,314,0.0,9.0,77,0.00,,,0.00,weatherlink.com 1.10,2013-02-07 16:53:00,
2013-02-07 12:08:00,56.4,49.0,30.26,East,94,5.0,14.0,77,0.00,,,0.00,weatherlink.com 1.10,2013-02-07 17:08:00,
2013-02-07 12:23:00,57.2,50.0,30.25,North,349,3.0,14.0,77,0.00,,,0.00,weatherlink.com 1.10,2013-02-07 17:23:00,
2013-02-07 12:38:00,57.4,50.0,30.24,NNE,33,2.0,14.0,76,0.00,,,0.00,weatherlink.com 1.10,2013-02-07 17:38:00,
2013-02-07 12:53:00,57.3,50.0,30.23,ENE,78,1.0,12.0,76,0.00,,,0.00,weatherlink.com 1.10,2013-02-07 17:53:00,
2013-02-07 13:08:00,57.3,50.0,30.23,ENE,66,4.0,10.0,76,0.00,,,0.00,weatherlink.com 1.10,2013-02-07 18:08:00,
2013-02-07 13:23:00,56.9,50.0,30.22,West,273,4.0,10.0,77,0.00,,,0.00,weatherlink.com 1.10,2013-02-07 18:23:00,
2013-02-07 13:38:00,56.6,49.0,30.21,East,94,7.0,8.0,77,0.00,,,0.00,weatherlink.com 1.10,2013-02-07 18:38:00,
2013-02-07 13:53:00,56.8,50.0,30.21,NNW,338,1.0,9.0,77,0.00,,,0.00,weatherlink.com 1.10,2013-02-07 18:53:00,
2013-02-07 14:08:00,56.4,49.0,30.20,NE,40,4.0,6.0,77,0.00,,,0.00,weatherlink.com 1.10,2013-02-07 19:08:00,
2013-02-07 14:23:00,55.7,49.0,30.20,NW,321,1.0,5.0,78,0.00,,,0.00,weatherlink.com 1.10,2013-02-07 19:23:00,
2013-02-07 14:53:00,55.0,49.0,30.18,NNE,19,3.0,13.0,81,0.00,,,0.00,weatherlink.com 1.10,2013-02-07 19:53:00,
2013-02-07 15:08:00,53.9,50.0,30.18,North,3,5.0,10.0,85,0.02,,,0.02,weatherlink.com 1.10,2013-02-07 20:08:00,
2013-02-07 15:24:00,53.0,50.0,30.18,North,3,1.0,9.0,88,0.04,,,0.04,weatherlink.com 1.10,2013-02-07 20:24:00,
2013-02-07 15:38:00,52.9,50.0,30.17,WNW,291,1.0,3.0,90,0.05,,,0.05,weatherlink.com 1.10,2013-02-07 20:38:00,
2013-02-07 15:53:00,52.8,50.0,30.18,NE,43,4.0,9.0,90,0.05,,,0.05,weatherlink.com 1.10,2013-02-07 20:53:00,
2013-02-07 16:09:00,52.8,50.0,30.18,ENE,61,1.0,7.0,91,0.04,,,0.06,weatherlink.com 1.10,2013-02-07 21:09:00,
2013-02-07 16:23:00,52.7,50.0,30.17,NE,42,4.0,8.0,91,0.02,,,0.06,weatherlink.com 1.10,2013-02-07 21:23:00,
2013-02-07 16:39:00,52.4,50.0,30.16,NNE,16,1.0,5.0,92,0.02,,,0.07,weatherlink.com 1.10,2013-02-07 21:39:00,
2013-02-07 16:54:00,52.2,50.0,30.15,NNE,31,0.0,5.0,93,0.04,,,0.09,weatherlink.com 1.10,2013-02-07 21:54:00,
2013-02-07 17:09:00,52.2,50.0,30.16,NE,38,0.0,7.0,93,0.05,,,0.11,weatherlink.com 1.10,2013-02-07 22:09:00,
2013-02-07 17:24:00,52.2,51.0,30.15,NNE,24,2.0,6.0,94,0.08,,,0.14,weatherlink.com 1.10,2013-02-07 22:24:00,
2013-02-07 17:39:00,52.2,51.0,30.15,NNE,33,3.0,10.0,94,0.11,,,0.18,weatherlink.com 1.10,2013-02-07 22:39:00,
2013-02-07 17:54:00,52.1,51.0,30.14,NE,44,5.0,8.0,94,0.12,,,0.21,weatherlink.com 1.10,2013-02-07 22:54:00,
2013-02-07 18:09:00,52.0,50.0,30.14,SE,132,4.0,5.0,94,0.14,,,0.25,weatherlink.com 1.10,2013-02-07 23:09:00,
2013-02-07 18:24:00,52.2,51.0,30.14,North,5,2.0,8.0,95,0.14,,,0.28,weatherlink.com 1.10,2013-02-07 23:24:00,
2013-02-07 18:39:00,52.0,51.0,30.13,NE,56,1.0,7.0,95,0.10,,,0.28,weatherlink.com 1.10,2013-02-07 23:39:00,
2013-02-07 18:54:00,51.8,51.0,30.13,NW,306,0.0,7.0,95,0.07,,,0.28,weatherlink.com 1.10,2013-02-07 23:54:00,
2013-02-07 19:09:00,51.7,50.0,30.12,ENE,59,5.0,7.0,95,0.03,,,0.28,weatherlink.com 1.10,2013-02-08 00:09:00,
2013-02-07 19:24:00,51.7,51.0,30.11,North,5,2.0,7.0,96,0.00,,,0.28,weatherlink.com 1.10,2013-02-08 00:24:00,
2013-02-07 19:39:00,51.8,51.0,30.10,NNE,16,4.0,12.0,96,0.00,,,0.28,weatherlink.com 1.10,2013-02-08 00:39:00,
2013-02-07 19:54:00,51.9,51.0,30.09,NE,49,2.0,7.0,95,0.00,,,0.28,weatherlink.com 1.10,2013-02-08 00:54:00,
2013-02-07 20:09:00,51.8,51.0,30.09,ESE,103,5.0,13.0,95,0.00,,,0.28,weatherlink.com 1.10,2013-02-08 01:09:00,
2013-02-07 20:24:00,51.7,50.0,30.08,NNE,18,2.0,8.0,95,0.00,,,0.28,weatherlink.com 1.10,2013-02-08 01:24:00,
2013-02-07 20:39:00,51.4,50.0,30.07,NNE,24,2.0,8.0,95,0.00,,,0.28,weatherlink.com 1.10,2013-02-08 01:39:00,
2013-02-07 20:54:00,51.4,50.0,30.07,ENE,72,9.0,11.0,96,0.04,,,0.32,weatherlink.com 1.10,2013-02-08 01:54:00,
2013-02-07 21:09:00,51.5,50.0,30.06,ENE,63,9.0,9.0,96,0.07,,,0.35,weatherlink.com 1.10,2013-02-08 02:09:00,
2013-02-07 21:24:00,51.6,51.0,30.05,ESE,107,2.0,11.0,96,0.11,,,0.39,weatherlink.com 1.10,2013-02-08 02:24:00,
2013-02-07 21:39:00,51.6,51.0,30.04,SW,218,2.0,9.0,96,0.17,,,0.45,weatherlink.com 1.10,2013-02-08 02:39:00,
2013-02-07 21:54:00,51.7,51.0,30.03,NNE,29,2.0,8.0,96,0.19,,,0.51,weatherlink.com 1.10,2013-02-08 02:54:00,
2013-02-07 22:09:00,51.9,51.0,30.02,ENE,77,7.0,10.0,96,0.21,,,0.56,weatherlink.com 1.10,2013-02-08 03:09:00,
2013-02-07 22:24:00,51.7,51.0,30.00,NE,56,7.0,9.0,96,0.23,,,0.62,weatherlink.com 1.10,2013-02-08 03:24:00,
2013-02-07 22:40:00,51.9,51.0,29.99,ESE,104,8.0,12.0,96,0.26,,,0.71,weatherlink.com 1.10,2013-02-08 03:40:00,
2013-02-07 22:54:00,52.2,51.0,29.98,North,6,5.0,12.0,96,0.32,,,0.83,weatherlink.com 1.10,2013-02-08 03:54:00,
2013-02-07 23:09:00,52.1,51.0,29.95,NNW,332,3.0,9.0,96,0.38,,,0.94,weatherlink.com 1.10,2013-02-08 04:09:00,
2013-02-07 23:24:00,51.7,51.0,29.95,NE,56,6.0,11.0,96,0.41,,,1.03,weatherlink.com 1.10,2013-02-08 04:24:00,
2013-02-07 23:40:00,51.7,51.0,29.93,North,352,9.0,14.0,96,0.41,,,1.12,weatherlink.com 1.10,2013-02-08 04:40:00,
2013-02-07 23:54:00,51.7,51.0,29.90,NE,40,2.0,12.0,96,0.37,,,1.21,weatherlink.com 1.10,2013-02-08 04:54:00,